Weather Roundup
Issued by NWS Springfield, MO

Current Version | Previous Version | Text Only | Print | Product List | Glossary On
Versions: 1 2 3 4 5 6 7 8 9 10 11 12 13 14 15 16 17 18 19 20 21 22 23 24 25 26 27 28 29 30 31 32 33 34 35 36 37 38 39 40 41 42 43 44 45 46 47 48 49 50
000
NZUS99 KSGF 231707
HRRSGF

HOURLY WEATHER
NATIONAL WEATHER SERVICE SPRINGFIELD MO
1200 PM CDT FRI JUN 23 2017

......SGF CWA......

CITY           SKY/WX    TMP DP  RH WIND       PRES   REMARKS
SPRINGFIELD    LGT RAIN  80  75  84 SW10      29.79R
JOPLIN         TSTM      72  71  97 N13G26    29.86R VSB 1
WEST PLAINS    CLOUDY    88  71  57 N8        29.78R HX  94
ROLLA          CLOUDY    80  70  71 N9        29.77F
OSAGE BEACH    CLOUDY    77  71  82 NW13G18   29.82R
BRANSON        PTSUNNY   84  73  70 CALM      29.81F HX  91

......SURROUNDING SGF CWA......

CITY           SKY/WX    TMP DP  RH WIND       PRES   REMARKS
CHANUTE        MOSUNNY   83  63  50 N20       29.91R
PARSONS        MOSUNNY   80  68  66 N16G25    29.89R
COFFEYVILLE    MOSUNNY   84  70  62 N18G25    29.86R
EMPORIA        CLOUDY    80  57  45 N13G22    29.95R
GROVE OK       CLOUDY    84  77  79 W5        29.82S HX  94
ROGERS AR      CLOUDY    83  74  74 W9        29.84S
SILOAM SPRINGS CLOUDY    82  73  74 W7        29.83S
HARRISON AR    CLOUDY    86  74  67 VRB7      29.81F HX  94
NEAR YELLVILLE CLOUDY   N/A N/A N/A W6        29.75S

......KANSAS AND MISSOURI......

CITY           SKY/WX    TMP DP  RH WIND       PRES   REMARKS
KANSAS CTY INT PTSUNNY   78  56  46 N13       29.90S
DOWNTOWN KC    SUNNY     82  57  42 N9        29.89R
COLUMBIA       CLOUDY    80  58  46 N26G35    29.83R
SEDALIA        CLOUDY    81  65  58 N17       29.85S
ST JOSEPH      CLOUDY    79  58  48 NW16      29.94R
ST LOUIS       MOSUNNY   85  71  63 NW16      29.73S HX  90
SPIRIT OF STL  CLOUDY    84  72  67 N14G21    29.72S
KIRKSVILLE     SUNNY     80  61  52 NW13      29.86R
WICHITA        CLOUDY    82  52  35 N20G29    29.99R
TOPEKA         CLOUDY    78  60  53 NW17G25   29.96R
OLATHE         SUNNY     80  52  37 N20G26    29.90R

......TENNESSEE......

CITY           SKY/WX    TMP DP  RH WIND       PRES   REMARKS
MEMPHIS        CLOUDY    76  76 100 SW12      29.74S
NASHVILLE      LGT RAIN  82  71  69 S23G35    29.77F

......ARKANSAS.......

CITY           SKY/WX    TMP DP  RH WIND       PRES   REMARKS
FAYETTEVILLE   PTSUNNY   83  74  74 W8        29.83F
FT SMITH       PTSUNNY   89  75  63 W9        29.79F HX  99
LITTLE ROCK    CLOUDY    86  76  71 W9        29.79R HX  96

......OKLAHOMA.......

CITY           SKY/WX    TMP DP  RH WIND       PRES   REMARKS
TULSA          CLOUDY    83  74  74 NW13      29.81R
PONCA CITY     SUNNY     86  59  39 N24G38    29.89R
MCALESTER      SUNNY     92  74  55 NW5       29.82S HX 101
OKLAHOMA CITY  MOSUNNY   89  66  46 N16G24    29.87R HX  91

......IOWA............

CITY           SKY/WX    TMP DP  RH WIND       PRES   REMARKS
DES MOINES     PTSUNNY   77  51  40 W22       29.87S
QUAD CITIES    SUNNY     79  59  50 N9        29.77R

......ILLINOIS........

CITY           SKY/WX    TMP DP  RH WIND       PRES   REMARKS
QUINCY         MOSUNNY   80  59  48 N14       29.79R
CHICAGO        CLOUDY    77  59  53 NW13G20   29.70R




USA.gov is the U.S. government's official web portal to all federal, state and local government web resources and services.